When you browse on this site, cookies collect data to enhance your experience and personalize the content and advertising you see.
Visit our Privacy Policy to learn more. By continuing to use the site, you agree to this use of cookies and data.
  • In Österreich
  • Länderverzeichnis
  • Für 7 Tage
  • Wassertemperatur
  • Wetterkarte
  • News
  • Widgets
  • user-avatar
    Anmelden

    Stündliche Wetter Viana-du-Kashtelu

    Heute, 3 April, Freitag

    Zeit Temperatur Niederschläge Wind Luftdruck Luftfeuchtigkeit
    00:00 +9°C° 0 mm 2 m/S 757 mmHg 87%
    01:00 +9°C° 0 mm 2 m/S 757 mmHg 87%
    02:00 +9°C° 0 mm 2 m/S 757 mmHg 88%
    03:00 +9°C° 0 mm 2 m/S 757 mmHg 88%
    04:00 +8°C° 0 mm 2 m/S 757 mmHg 89%
    05:00 +8°C° 0 mm 2 m/S 757 mmHg 90%
    06:00 +12°C° 0 mm 2 m/S 757 mmHg 82%
    07:00 +14°C° 0 mm 2 m/S 757 mmHg 74%
    08:00 +16°C° 0 mm 3 m/S 757 mmHg 66%
    09:00 +17°C° 0 mm 3 m/S 757 mmHg 61%
    10:00 +19°C° 0 mm 3 m/S 757 mmHg 56%
    11:00 +20°C° 0 mm 3 m/S 756 mmHg 51%
    12:00 +20°C° 0 mm 3 m/S 756 mmHg 51%
    13:00 +20°C° 0 mm 3 m/S 756 mmHg 50%
    14:00 +20°C° 0 mm 3 m/S 755 mmHg 50%
    15:00 +19°C° 0 mm 2 m/S 755 mmHg 56%
    16:00 +19°C° 0 mm 1 m/S 755 mmHg 62%
    17:00 +18°C° 0 mm 1 m/S 754 mmHg 67%
    18:00 +15°C° 0 mm 1 m/S 755 mmHg 72%
    19:00 +14°C° 0 mm 1 m/S 755 mmHg 76%
    20:00 +12°C° 0 mm 1 m/S 755 mmHg 80%
    21:00 +12°C° 0 mm 1 m/S 755 mmHg 80%
    22:00 +12°C° 0 mm 1 m/S 755 mmHg 80%
    23:00 +12°C° 0 mm 2 m/S 756 mmHg 80%

    Morgen, 4 April, Samstag

    Zeit Temperatur Niederschläge Wind Luftdruck Luftfeuchtigkeit
    00:00 +10°C° 0 mm 2 m/S 755 mmHg 78%
    01:00 +10°C° 0 mm 2 m/S 755 mmHg 76%
    02:00 +10°C° 0 mm 3 m/S 754 mmHg 73%
    03:00 +10°C° 0 mm 3 m/S 754 mmHg 72%
    04:00 +10°C° 0 mm 3 m/S 754 mmHg 71%
    05:00 +10°C° 0 mm 4 m/S 754 mmHg 70%
    06:00 +12°C° 0 mm 4 m/S 754 mmHg 66%
    07:00 +14°C° 0 mm 4 m/S 754 mmHg 63%
    08:00 +17°C° 0 mm 4 m/S 754 mmHg 59%
    09:00 +17°C° 0 mm 5 m/S 754 mmHg 56%
    10:00 +19°C° 0 mm 5 m/S 753 mmHg 53%
    11:00 +20°C° 0 mm 6 m/S 753 mmHg 50%
    12:00 +20°C° 0 mm 6 m/S 753 mmHg 51%
    13:00 +19°C° 0 mm 6 m/S 753 mmHg 52%
    14:00 +18°C° 0 mm 7 m/S 752 mmHg 53%
    15:00 +17°C° 0 mm 7 m/S 752 mmHg 59%
    16:00 +16°C° 0 mm 7 m/S 752 mmHg 64%
    17:00 +16°C° 0 mm 7 m/S 752 mmHg 70%
    18:00 +15°C° 0.1 mm 7 m/S 753 mmHg 76%
    19:00 +14°C° 0.1 mm 6 m/S 753 mmHg 82%
    20:00 +13°C° 0.1 mm 6 m/S 753 mmHg 87%
    21:00 +12°C° 0 mm 7 m/S 753 mmHg 85%
    22:00 +14°C° 0 mm 7 m/S 753 mmHg 83%
    23:00 +13°C° 0 mm 8 m/S 753 mmHg 81%

    übermorgen, 5 April, Sonntag

    Zeit Temperatur Niederschläge Wind Luftdruck Luftfeuchtigkeit
    00:00 +12°C° 0.4 mm 8 m/S 753 mmHg 84%
    01:00 +12°C° 0.4 mm 8 m/S 752 mmHg 88%
    02:00 +12°C° 0.4 mm 8 m/S 752 mmHg 91%
    03:00 +12°C° 0.3 mm 8 m/S 752 mmHg 91%
    04:00 +12°C° 0.3 mm 7 m/S 752 mmHg 91%
    05:00 +12°C° 0.3 mm 7 m/S 752 mmHg 91%
    06:00 +12°C° 0.2 mm 8 m/S 752 mmHg 91%
    07:00 +12°C° 0.2 mm 8 m/S 752 mmHg 91%
    08:00 +13°C° 0.2 mm 9 m/S 752 mmHg 92%
    09:00 +13°C° 1.7 mm 9 m/S 752 mmHg 92%
    10:00 +13°C° 1.7 mm 9 m/S 752 mmHg 93%
    11:00 +13°C° 1.7 mm 9 m/S 752 mmHg 94%
    12:00 +13°C° 2.8 mm 9 m/S 752 mmHg 95%
    13:00 +15°C° 2.8 mm 8 m/S 752 mmHg 96%
    14:00 +15°C° 2.8 mm 8 m/S 752 mmHg 97%
    15:00 +15°C° 1.2 mm 6 m/S 753 mmHg 97%
    16:00 +15°C° 1.2 mm 4 m/S 753 mmHg 97%
    17:00 +14°C° 1.2 mm 3 m/S 753 mmHg 97%
    18:00 +14°C° 0.1 mm 3 m/S 754 mmHg 97%
    19:00 +13°C° 0.1 mm 3 m/S 755 mmHg 97%
    20:00 +12°C° 0.1 mm 3 m/S 756 mmHg 97%
    21:00 +12°C° 0 mm 3 m/S 757 mmHg 97%
    22:00 +13°C° 0 mm 2 m/S 757 mmHg 96%
    23:00 +12°C° 0 mm 2 m/S 758 mmHg 96%

    6 April, Montag

    Zeit Temperatur Niederschläge Wind Luftdruck Luftfeuchtigkeit
    00:00 +12°C° 0 mm 2 m/S 758 mmHg 95%
    01:00 +12°C° 0 mm 2 m/S 758 mmHg 94%
    02:00 +12°C° 0 mm 2 m/S 759 mmHg 93%
    03:00 +10°C° 0 mm 2 m/S 759 mmHg 92%
    04:00 +10°C° 0 mm 2 m/S 760 mmHg 91%
    05:00 +9°C° 0 mm 2 m/S 760 mmHg 89%
    06:00 +10°C° 0 mm 2 m/S 760 mmHg 84%
    07:00 +13°C° 0 mm 2 m/S 761 mmHg 79%
    08:00 +15°C° 0 mm 2 m/S 761 mmHg 74%
    09:00 +16°C° 0 mm 2 m/S 762 mmHg 65%
    10:00 +18°C° 0 mm 2 m/S 762 mmHg 56%
    11:00 +19°C° 0 mm 2 m/S 762 mmHg 47%
    12:00 +19°C° 0 mm 3 m/S 762 mmHg 48%
    13:00 +19°C° 0 mm 3 m/S 762 mmHg 49%
    14:00 +19°C° 0 mm 4 m/S 762 mmHg 50%
    15:00 +18°C° 0 mm 4 m/S 762 mmHg 55%
    16:00 +17°C° 0 mm 4 m/S 762 mmHg 60%
    17:00 +15°C° 0 mm 4 m/S 762 mmHg 66%
    18:00 +14°C° 0 mm 4 m/S 762 mmHg 71%
    19:00 +12°C° 0 mm 4 m/S 763 mmHg 76%
    20:00 +10°C° 0 mm 4 m/S 763 mmHg 81%
    21:00 +10°C° 0 mm 3 m/S 764 mmHg 81%
    22:00 +10°C° 0 mm 2 m/S 764 mmHg 81%
    23:00 +9°C° 0 mm 2 m/S 764 mmHg 81%

    7 April, Dienstag

    Zeit Temperatur Niederschläge Wind Luftdruck Luftfeuchtigkeit
    00:00 +9°C° 0 mm 2 m/S 764 mmHg 81%
    01:00 +9°C° 0 mm 2 m/S 763 mmHg 81%
    02:00 +9°C° 0 mm 2 m/S 763 mmHg 81%
    03:00 +9°C° 0 mm 2 m/S 763 mmHg 80%
    04:00 +9°C° 0 mm 2 m/S 763 mmHg 79%
    05:00 +9°C° 0 mm 2 m/S 763 mmHg 78%
    06:00 +12°C° 0 mm 2 m/S 763 mmHg 72%
    07:00 +14°C° 0 mm 2 m/S 763 mmHg 66%
    08:00 +17°C° 0 mm 2 m/S 763 mmHg 59%
    09:00 +18°C° 0 mm 2 m/S 763 mmHg 55%
    10:00 +20°C° 0 mm 2 m/S 763 mmHg 50%
    11:00 +21°C° 0 mm 2 m/S 763 mmHg 46%
    12:00 +21°C° 0 mm 2 m/S 763 mmHg 47%
    13:00 +21°C° 0 mm 2 m/S 763 mmHg 48%
    14:00 +21°C° 0 mm 2 m/S 762 mmHg 49%
    15:00 +21°C° 0 mm 1 m/S 762 mmHg 54%
    16:00 +20°C° 0 mm 1 m/S 762 mmHg 59%
    17:00 +19°C° 0 mm 1 m/S 762 mmHg 64%
    18:00 +18°C° 0 mm 1 m/S 762 mmHg 68%
    19:00 +16°C° 0 mm 1 m/S 762 mmHg 72%
    20:00 +14°C° 0 mm 1 m/S 763 mmHg 75%
    21:00 +14°C° 0 mm 1 m/S 763 mmHg 76%
    22:00 +14°C° 0 mm 2 m/S 763 mmHg 76%
    23:00 +14°C° 0 mm 2 m/S 763 mmHg 77%

    8 April, Mittwoch

    Zeit Temperatur Niederschläge Wind Luftdruck Luftfeuchtigkeit
    00:00 +14°C° 0 mm 2 m/S 763 mmHg 77%
    01:00 +14°C° 0 mm 2 m/S 762 mmHg 77%
    02:00 +13°C° 0 mm 2 m/S 762 mmHg 77%
    03:00 +14°C° 0 mm 2 m/S 762 mmHg 77%
    04:00 +14°C° 0 mm 2 m/S 762 mmHg 77%
    05:00 +14°C° 0 mm 2 m/S 762 mmHg 77%
    06:00 +15°C° 0 mm 2 m/S 762 mmHg 76%
    07:00 +14°C° 0 mm 3 m/S 762 mmHg 75%
    08:00 +16°C° 0 mm 3 m/S 763 mmHg 73%
    09:00 +17°C° 0.1 mm 3 m/S 763 mmHg 74%
    10:00 +17°C° 0.1 mm 3 m/S 763 mmHg 75%
    11:00 +17°C° 0.1 mm 4 m/S 763 mmHg 76%
    12:00 +17°C° 0.3 mm 3 m/S 763 mmHg 82%
    13:00 +16°C° 0.3 mm 3 m/S 763 mmHg 88%
    14:00 +16°C° 0.3 mm 3 m/S 763 mmHg 93%
    15:00 +16°C° 0.2 mm 3 m/S 763 mmHg 94%
    16:00 +16°C° 0.2 mm 3 m/S 762 mmHg 94%
    17:00 +14°C° 0.2 mm 3 m/S 762 mmHg 95%
    18:00 +14°C° 0 mm 3 m/S 763 mmHg 94%
    19:00 +15°C° 0 mm 2 m/S 763 mmHg 93%
    20:00 +15°C° 0 mm 2 m/S 763 mmHg 92%
    21:00 +15°C° 0 mm 2 m/S 763 mmHg 92%
    22:00 +15°C° 0 mm 2 m/S 763 mmHg 92%
    23:00 +15°C° 0 mm 2 m/S 763 mmHg 91%
    Mehr zeigen